Photometre #44[NE_1.6] Toulon AOT

File : 20190924_44.hum

24/09/2019,06:14:14,TEMP=14.3,BA=5.28,STAT.A=8.5,ExtBa=12.79
24/09/2019,06:17:45,TEMP=14.9,BA=5.28,STAT.A=8.5,ExtBa=12.74
24/09/2019,06:21:54,TEMP=15.6,BA=5.24,STAT.A=8.5,ExtBa=12.73
24/09/2019,06:26:47,TEMP=16.3,BA=5.24,STAT.A=8.5,ExtBa=12.73
24/09/2019,06:32:41,TEMP=17.2,BA=5.20,STAT.A=8.5,ExtBa=12.74
24/09/2019,06:40:01,TEMP=18.2,BA=5.20,STAT.A=8.5,ExtBa=12.75
24/09/2019,06:41:38,TEMP=18.4,BA=5.20,STAT.b=8.5
24/09/2019,06:49:30,TEMP=18.7,BA=5.20,STAT.B=8.5,ExtBa=12.74
24/09/2019,06:53:39,TEMP=19.3,BA=5.28,STAT.A=8.5,ExtBa=12.73
24/09/2019,06:58:34,TEMP=19.9,BA=5.28,STAT.A=8.5,ExtBa=12.73
24/09/2019,07:04:11,TEMP=20.5,BA=5.32,STAT.A=8.5,ExtBa=12.76
24/09/2019,07:10:32,TEMP=21.1,BA=5.48,STAT.A=8.5,ExtBa=12.79
24/09/2019,07:17:50,TEMP=21.9,BA=5.48,STAT.C=8.5,ExtBa=12.84
24/09/2019,07:26:20,TEMP=22.7,BA=5.44,STAT.A=8.5,ExtBa=12.90
24/09/2019,07:36:22,TEMP=23.3,BA=5.48,STAT.A=8.5,ExtBa=12.99
24/09/2019,07:48:26,TEMP=24.0,BA=5.52,STAT.A=8.5,ExtBa=13.12
24/09/2019,08:03:18,TEMP=24.9,BA=5.52,STAT.A=8.5,ExtBa=13.24
24/09/2019,08:22:13,TEMP=25.9,BA=5.56,STAT.B=9.0,ExtBa=13.35
24/09/2019,08:28:40,TEMP=26.4,BA=5.56,STAT.F,ExtBa=13.37
24/09/2019,08:43:39,TEMP=27.2,BA=5.56,STAT.D=9.0,ExtBa=13.43
24/09/2019,08:58:39,TEMP=28.3,BA=5.56,STAT.D=9.0,ExtBa=13.56
24/09/2019,09:00:18,TEMP=28.5,BA=5.48,STAT.b=9.0
24/09/2019,09:13:39,TEMP=28.8,BA=5.56,STAT.D=9.0,ExtBa=13.25
24/09/2019,09:15:16,TEMP=28.7,BA=5.56,STAT.b=9.0
24/09/2019,09:28:41,TEMP=28.1,BA=5.56,STAT.F,ExtBa=13.40
24/09/2019,09:30:17,TEMP=28.2,BA=5.44,STAT.b=9.0
24/09/2019,09:43:39,TEMP=28.5,BA=5.56,STAT.D=9.0,ExtBa=13.26
24/09/2019,09:58:39,TEMP=28.0,BA=5.56,STAT.D=9.0,ExtBa=14.08
24/09/2019,10:13:39,TEMP=28.5,BA=5.56,STAT.D=9.0,ExtBa=14.24
24/09/2019,10:28:41,TEMP=29.1,BA=5.60,STAT.F,ExtBa=13.42
24/09/2019,10:43:39,TEMP=28.6,BA=5.60,STAT.D=9.0,ExtBa=14.25
24/09/2019,10:58:39,TEMP=28.7,BA=5.60,STAT.D=9.0,ExtBa=13.38
24/09/2019,11:13:39,TEMP=28.8,BA=5.60,STAT.D=9.0,ExtBa=14.08
24/09/2019,11:28:41,TEMP=29.3,BA=5.60,STAT.F,ExtBa=14.02
24/09/2019,11:43:39,TEMP=29.1,BA=5.60,STAT.D=9.0,ExtBa=14.08
24/09/2019,11:45:18,TEMP=29.3,BA=5.60,STAT.b=9.0
24/09/2019,11:58:39,TEMP=29.4,BA=5.60,STAT.D=9.0,ExtBa=13.65
24/09/2019,12:00:18,TEMP=29.5,BA=5.52,STAT.b=9.0
24/09/2019,12:13:39,TEMP=29.4,BA=5.60,STAT.D=9.0,ExtBa=13.43
24/09/2019,12:15:16,TEMP=29.4,BA=5.60,STAT.b=9.0
24/09/2019,12:28:40,TEMP=28.8,BA=5.60,STAT.F,ExtBa=13.38
24/09/2019,12:30:17,TEMP=28.9,BA=5.48,STAT.b=9.0
24/09/2019,12:43:39,TEMP=28.1,BA=5.60,STAT.D=9.0,ExtBa=13.38
24/09/2019,12:45:18,TEMP=28.1,BA=5.60,STAT.b=9.0
24/09/2019,12:58:39,TEMP=28.6,BA=5.60,STAT.D=9.0,ExtBa=14.20
24/09/2019,13:00:18,TEMP=28.8,BA=5.52,STAT.b=9.0
24/09/2019,13:13:30,TEMP=28.8,BA=5.64,STAT.b=9.0
24/09/2019,13:28:40,TEMP=28.9,BA=5.64,STAT.F,ExtBa=14.05
24/09/2019,13:30:19,TEMP=29.0,BA=5.52,STAT.b=9.0
24/09/2019,13:43:39,TEMP=29.0,BA=5.64,STAT.D=9.0,ExtBa=13.89
24/09/2019,13:45:18,TEMP=29.0,BA=5.64,STAT.b=9.0
24/09/2019,13:58:39,TEMP=28.5,BA=5.64,STAT.D=9.0,ExtBa=13.82
24/09/2019,14:00:18,TEMP=28.5,BA=5.52,STAT.b=9.0
24/09/2019,14:13:38,TEMP=28.0,BA=5.64,STAT.D=9.0,ExtBa=13.75
24/09/2019,14:15:18,TEMP=28.1,BA=5.64,STAT.b=9.0
24/09/2019,14:28:40,TEMP=27.8,BA=5.64,STAT.F,ExtBa=13.71
24/09/2019,14:35:07,TEMP=27.8,BA=5.52,STAT.B=9.0,ExtBa=13.73
24/09/2019,14:54:02,TEMP=27.5,BA=5.64,STAT.A=9.0,ExtBa=13.65
24/09/2019,15:08:54,TEMP=27.4,BA=5.64,STAT.A=9.0,ExtBa=13.60
24/09/2019,15:20:58,TEMP=27.0,BA=5.64,STAT.A=9.0,ExtBa=13.59
24/09/2019,15:31:00,TEMP=26.8,BA=5.64,STAT.A=9.0,ExtBa=13.55
24/09/2019,15:39:30,TEMP=26.8,BA=5.64,STAT.C=9.0,ExtBa=13.51
24/09/2019,15:46:48,TEMP=26.6,BA=5.52,STAT.A=9.0,ExtBa=13.36
24/09/2019,15:53:09,TEMP=26.3,BA=5.64,STAT.A=9.0,ExtBa=13.45
24/09/2019,15:58:44,TEMP=26.2,BA=5.64,STAT.A=9.0,ExtBa=13.41
24/09/2019,16:03:41,TEMP=26.1,BA=5.52,STAT.A=9.0,ExtBa=13.40
24/09/2019,16:08:06,TEMP=26.1,BA=5.52,STAT.B=9.0,ExtBa=13.37
24/09/2019,16:17:19,TEMP=25.8,BA=5.56,STAT.A=9.0,ExtBa=13.33
24/09/2019,16:24:37,TEMP=25.0,BA=5.48,STAT.A=9.0,ExtBa=13.13
24/09/2019,16:30:32,TEMP=24.2,BA=5.48,STAT.A=9.0,ExtBa=13.07
24/09/2019,16:35:25,TEMP=23.8,BA=5.48,STAT.A=9.0,ExtBa=13.03
24/09/2019,16:39:34,TEMP=23.7,BA=5.48,STAT.A=9.0,ExtBa=13.01
24/09/2019,16:43:06,TEMP=23.6,BA=5.40,STAT.A=8.5,ExtBa=12.99